User: anonymous   Login
Location: Unspecified
(0.0000°N, 0.0000°E)
Time: 10:17:19
(UTC+00:00)
Language:

GONETS M 05 - Orbit

View from above orbital plane
View from above orbital plane
View from above satellite
View from above satellite

Ground track
Ground track

The orbit data is extracted from the following two-line orbital elements,

1 39249U 13048A   17080.67811654 +.00000024 +00000-0 +10000-3 0  9997
2 39249 082.4797 287.0418 0016430 014.7958 345.3599 12.42890107159832
Epoch (UTC): 21 March 2017 16:16:29
Eccentricity: 0.0016430
inclination: 82.4797°
perigee height: 1481 km
apogee height: 1507 km
right ascension of ascending node: 287.0418°
argument of perigee: 14.7958°
revolutions per day: 12.42890107
mean anomaly at epoch: 345.3599°
orbit number at epoch: 15983

The dashed part of the orbit path shows where the satellite is in the earth's shadow,  

DLR